AirNav   Air Wisconsin pilot careers
 
 928 users online  

AL88 Ban Farm Airport
Lillian, Alabama, USA

GOING TO LILLIAN?


FAA INFORMATION EFFECTIVE 04 JANUARY 2018

Location

FAA Identifier: AL88
Lat/Long: 30-25-35.7120N / 087-28-14.9260W
30-25.595200N / 087-28.248767W
30.4265867 / -87.4708128
(estimated)
Elevation: 80 ft. / 24 m (estimated)
Variation: 01E (1985)
From city: 3 miles NW of LILLIAN, AL
Time zone: UTC -6 (UTC -5 during Daylight Saving Time)
Zip code: 36530

Airport Operations

Airport use: Private use. Permission required prior to landing
Activation date: 06/1991
Control tower: no
ARTCC: JACKSONVILLE CENTER
FSS: ANNISTON FLIGHT SERVICE STATION
Attendance: CONTINUOUS
Wind indicator: yes
Segmented circle: no

Airport Communications

WX AWOS-3 at JKA (13 nm SW): 134.525 (251-968-7581)
WX ASOS at PNS (15 nm E): PHONE 850-436-4799

Nearby radio navigation aids

VOR radial/distance  VOR name  Freq  Var
NUNr248/(7.5)SAUFLEY VOR108.8001E
BFMr106/32.2BROOKLEY VORTAC112.8004E

 
NDB name  Hdg/Dist  Freq  Var  ID
PICKENS270/15.132602WPKZ .--. -.- --..

Airport Services

Runway Information

Runway 9/27

Dimensions: 1320 x 95 ft. / 402 x 29 m
Surface: turf
RUNWAY 9  RUNWAY 27
Traffic pattern: rightleft

Airport Ownership and Management from official FAA records

Ownership: Privately-owned
Owner: WILLIAM T. MILES
P.O. BOX 329
LILLIAN, AL 36549
Phone (251) 979-0809
Manager: WILLIAM T. MILES
P.O. BOX 329
LILLIAN, AL 36549
Phone (251) 979-0809

Airport Operational Statistics

Aircraft based on the field: 1
Single engine airplanes: 1
    

Additional Remarks

OWNER DESIRES ARPT NOT BE CHARTED.

Instrument Procedures

There are no published instrument procedures at AL88.

Some nearby airports with instrument procedures:

KNPA - Pensacola Naval Air Station/Forrest Sherman Field (9 nm SE)
5R4 - Foley Municipal Airport (12 nm W)
KJKA - Jack Edwards Airport (13 nm SW)
KPNS - Pensacola International Airport (15 nm E)
KCQF - H L Sonny Callahan Airport (21 nm W)
 
Loc | Ops | Rwys | IFR | FBO | Links
Com | Nav | Svcs | Stats | Notes

Continental Motors
AirBoss

 
Area around AL88 (Ban Farm Airport)
 
Road maps at: MapQuest Bing Google
 
Aerial photo
No photo
 
Sectional chart

 
Airport distance calculator
Flying to Ban Farm Airport? Find the distance to fly.

From to AL88

Sunrise and sunset
Times for 22-Jan-2018
 Local
(UTC-6)
 Zulu
(UTC)
Morning civil twilight06:2112:21
Sunrise06:4712:47
Sunset17:1623:16
Evening civil twilight17:4223:42

Current date and time
Zulu (UTC)  23-Jan-2018 00:30:55
Local (UTC-6)  22-Jan-2018 18:30:55
 
METAR
KNPA 
9nm SE 
222356Z 21007KT 10SM FEW017 BKN023 OVC070 19/17 A2994 RMK AO2 SLP141 60021 T01890172 10194 20178 51010 $
KJKA 
13nm SW 
230015Z AUTO 00000KT 7SM SCT017 BKN023 OVC029 16/16 A2996 RMK AO2 T01620162
KPNS 
15nm E 
230006Z 18006KT 10SM BKN024 18/17 A2995 RMK AO2 T01780172
TAF
KNPA 
9nm SE 
2223/2323 20009KT 9999 VCSH SCT015 BKN050 BKN100 BKN250 QNH2990INS TEMPO 2223/2302 SCT008 BKN015 OVC050 FM230200 24009KT 9999 FEW015 BKN050 BKN250 QNH2993INS FM230500 30009KT 9999 SCT250 QNH2998INS FM231200 33010KT 9999 SCT250 QNH3006INS AUTOMATED SENSOR METWATCH 2303 TIL 2312 T08/2312Z T18/2319Z FN20053
KPNS 
15nm E 
222025Z 2220/2318 17012KT 6SM -RA BR SCT005 BKN015 BKN070 TEMPO 2220/2222 17020G28KT 4SM RA BR BKN005 FM230100 24007KT P6SM BKN050 FM230400 29009KT P6SM FEW250
NOTAMs
Click for the latest NOTAMs
NOTAMs are issued by the DoD/FAA and will open in a separate window not controlled by AirNav.

 

 
 

Would you like to see your business listed on this page?

 If your business provides an interesting product or service to pilots, flight crews, aircraft, or users of the Ban Farm Airport, you should consider listing it here.  To start the listing process, click on the button below
 
Add a business
 

Other Pages about Ban Farm Airport

Update a link
 
Copyright © AirNav, LLC. All rights reserved. Privacy Policy  Contact